DW8188 Weather Reports


Display with metric or nautical units.
time (UTC)temp
F
wind
direction
speed
MPH
gust
MPH
rain 1hr
in
rain 24hr
in
rain mn
in
humidity
%
barometer
mb
20180222021837 35 293 0.0 0.0 0.00 0.00 0.00 63 1001.2
20180222020837 35 270 0.0 0.0 0.00 0.00 0.00 63 1001.5
20180222015837 35 293 0.0 0.0 0.00 0.00 0.00 64 1001.6
20180222014837 35 315 0.0 0.0 0.00 0.00 0.00 64 1001.8
20180222013837 35 293 0.0 0.0 0.00 0.00 0.00 63 1001.6
20180222012837 36 293 0.0 0.0 0.00 0.00 0.00 62 1001.7
20180222010837 36 293 0.0 0.0 0.00 0.00 0.00 62 1001.9
20180222002837 37 293 0.0 0.0 0.00 0.00 0.00 61 1002.4
20180222001837 37 225 0.0 0.0 0.00 0.00 0.00 62 1002.2
20180221234837 37 338 0.0 0.0 0.00 0.00 0.00 61 1002.5
20180221233837 37 293 0.0 0.0 0.00 0.00 0.00 61 1002.7
20180221232837 38 338 0.0 0.0 0.00 0.00 0.00 61 1002.7
20180221231837 38 0 0.0 0.0 0.00 0.00 0.00 62 1002.7
20180221230837 38 338 0.0 0.0 0.00 0.00 0.00 62 1002.7
20180221225837 38 338 0.0 0.0 0.00 0.00 0.00 62 1002.7
20180221224837 38 0 0.0 0.0 0.00 0.00 0.00 62 1002.6
20180221223837 38 338 0.0 0.0 0.00 0.00 0.00 62 1002.7
20180221222837 38 0 0.0 0.0 0.00 0.00 0.00 61 1002.6
20180221221837 38 23 0.0 0.0 0.00 0.00 0.00 61 1002.5
20180221220837 38 0 0.0 0.0 0.00 0.00 0.00 59 1002.5
20180221214837 39 0 0.0 0.0 0.00 0.00 0.00 53 1002.4
20180221213837 40 0 0.0 0.0 0.00 0.00 0.00 52 1002.2
20180221212838 40 338 0.0 0.0 0.00 0.00 0.00 52 1002.1
20180221210838 40 90 3.0 3.0 0.00 0.00 0.00 52 1002.0
20180221193837 44 0 0.0 11.0 0.00 0.00 0.00 43 1001.1
20180221192837 43 113 0.0 0.0 0.00 0.00 0.00 45 1001.1
20180221191837 43 225 0.0 0.0 0.00 0.00 0.00 46 1001.4
20180221190837 42 248 0.0 0.0 0.00 0.00 0.00 48 1001.5
20180221184837 41 180 0.0 0.0 0.00 0.00 0.00 49 1001.5
20180221181837 40 315 0.0 0.0 0.00 0.00 0.00 50 1001.8
20180221180837 40 338 0.0 0.0 0.00 0.00 0.00 49 1002.0
20180221174837 39 0 0.0 0.0 0.00 0.00 0.00 51 1002.0
20180221170837 42 248 0.0 0.0 0.00 0.00 0.00 45 1001.7
20180221165837 42 225 0.0 0.0 0.00 0.00 0.00 45 1001.8
20180221164837 43 248 0.0 0.0 0.00 0.00 0.00 45 1001.7
20180221162837 43 225 0.0 0.0 0.00 0.00 0.00 43 1001.7
20180221161837 44 225 0.0 0.0 0.00 0.00 0.00 42 1001.5
20180221154837 46 158 0.0 0.0 0.00 0.00 0.00 38 1001.8
20180221153837 47 158 0.0 0.0 0.00 0.00 0.00 36 1002.0
20180221151837 47 203 6.0 8.0 0.00 0.00 0.00 36 1002.1
20180221150837 47 203 5.0 10.0 0.00 0.00 0.00 35 1002.2
20180221143837 47 113 0.0 0.0 0.00 0.00 0.00 36 1002.5
20180221141837 47 113 0.0 0.0 0.00 0.00 0.00 38 1002.7
20180221140837 47 158 0.0 0.0 0.00 0.00 0.00 37 1002.8
20180221134837 47 270 0.0 0.0 0.00 0.00 0.00 40 1003.0
20180221132837 47 68 0.0 0.0 0.00 0.00 0.00 43 1003.3
20180221130837 46 68 0.0 0.0 0.00 0.00 0.00 44 1003.7
20180221124837 45 0 0.0 0.0 0.00 0.00 0.00 45 1003.8
20180221123837 46 90 0.0 4.0 0.00 0.00 0.00 44 1003.9
20180221122837 45 135 0.0 0.0 0.00 0.00 0.00 45 1004.0
20180221115837 44 90 0.0 0.0 0.00 0.00 0.00 47 1004.4
20180221114837 44 135 0.0 0.0 0.00 0.00 0.00 47 1004.4
20180221112837 43 135 0.0 5.0 0.00 0.00 0.00 52 1004.4
20180221111837 43 158 0.0 0.0 0.00 0.00 0.00 54 1004.6
20180221105837 42 113 0.0 0.0 0.00 0.00 0.00 51 1004.7
20180221103837 41 158 0.0 0.0 0.00 0.00 0.00 59 1004.8
20180221102837 40 180 0.0 0.0 0.00 0.00 0.00 64 1004.8
20180221100837 39 180 0.0 0.0 0.00 0.00 0.00 69 1004.8
20180221094837 39 158 0.0 0.0 0.00 0.00 0.00 69 1004.8
20180221093837 40 158 0.0 0.0 0.00 0.00 0.00 70 1004.7
20180221092837 40 113 0.0 0.0 0.00 0.00 0.00 70 1004.6
20180221091837 40 180 0.0 0.0 0.00 0.00 0.00 69 1004.6
20180221083837 38 180 0.0 0.0 0.00 0.00 0.00 73 1003.9
20180221082837 38 203 0.0 0.0 0.00 0.00 0.00 73 1004.0
20180221072837 35 45 0.0 0.0 0.00 0.00 0.00 80 1003.6
20180221071837 34 23 0.0 0.0 0.00 0.00 0.00 81 1003.7
20180221065837 32 338 0.0 0.0 0.00 0.00 0.00 81 1003.7
20180221063837 33 225 0.0 0.0 0.00 0.00 0.00 81 1003.8
20180221062837 32 248 0.0 0.0 0.00 0.00 0.00 80 1003.8
20180221061837 32 225 0.0 0.0 0.00 0.00 0.00 80 1003.7
20180221060840 33 270 0.0 0.0 0.00 0.00 0.00 79 1003.5
20180221055837 33 270 0.0 0.0 0.00 0.00 0.00 79 1003.7
20180221052837 33 203 0.0 0.0 0.00 0.00 0.00 79 1003.4
20180221050837 34 248 0.0 0.0 0.00 0.00 0.00 80 1003.5
20180221042837 34 0 0.0 0.0 0.00 0.00 0.00 80 1003.5
20180221035837 34 270 0.0 0.0 0.00 0.00 0.00 80 1003.8
20180221034837 34 293 0.0 0.0 0.00 0.00 0.00 80 1003.8
20180221032837 34 23 0.0 0.0 0.00 0.00 0.00 80 1003.8
20180221031837 34 315 0.0 0.0 0.00 0.00 0.00 80 1003.8
20180221030837 34 315 0.0 0.0 0.00 0.00 0.00 80 1003.9
20180221024837 35 293 0.0 0.0 0.00 0.00 0.00 80 1003.7